This is the latest recevied weather packets stored in our database for station/object W4SNA-4. If no packets are shown the sender has not sent any weather packets the latest 10 day(s).
| Time | Temp. | Humidity | Pressure | Rain* | Wind** | Luminosity | Snow |
|---|---|---|---|---|---|---|---|
| 1777827308 | 15.56° C | 42% | 1014.4 hPa | 0 mm | - | - | - |
| 1777827009 | 15.56° C | 40% | 1014.5 hPa | 0 mm | - | - | - |
| 1777826708 | 15.56° C | 40% | 1014.5 hPa | 0 mm | - | - | - |
| 1777826408 | 15.56° C | 43% | 1014.5 hPa | 0 mm | - | - | - |
| 1777826108 | 15.56° C | 41% | 1014.8 hPa | 0 mm | - | - | - |
| 1777825809 | 15.56° C | 45% | 1014.8 hPa | 0 mm | - | - | - |
| 1777825508 | 15.56° C | 42% | 1014.8 hPa | 0 mm | - | - | - |
| 1777825208 | 15.56° C | 43% | 1014.8 hPa | 0 mm | - | - | - |
| 1777824908 | 15° C | 42% | 1014.8 hPa | 0 mm | - | - | - |
| 1777824608 | 15° C | 44% | 1014.8 hPa | 0 mm | - | - | - |
| 1777824308 | 15° C | 44% | 1014.9 hPa | 0 mm | - | - | - |
| 1777824008 | 14.44° C | 43% | 1014.9 hPa | 0 mm | - | - | - |
| 1777823708 | 14.44° C | 44% | 1014.9 hPa | 0 mm | - | - | - |
| 1777823409 | 14.44° C | 43% | 1015.1 hPa | 0 mm | - | - | - |
| 1777823108 | 14.44° C | 44% | 1015.1 hPa | 0 mm | - | - | - |
| 1777822787 | 14.44° C | 45% | 1015.1 hPa | 0 mm | - | - | - |
| 1777822484 | 13.89° C | 45% | 1015.1 hPa | 0 mm | - | - | - |
| 1777822114 | 13.33° C | 47% | 1015.1 hPa | 0 mm | - | - | - |
| 1777821806 | 13.33° C | 46% | 1015.3 hPa | 0 mm | - | - | - |
| 1777821366 | 13.89° C | 46% | 1015.3 hPa | 0 mm | - | - | - |
| 1777821067 | 13.89° C | 46% | 1015.3 hPa | 0 mm | - | - | - |
| 1777820767 | 13.33° C | 48% | 1015.1 hPa | 0 mm | - | - | - |
| 1777820466 | 13.33° C | 47% | 1015.1 hPa | 0 mm | - | - | - |
| 1777820167 | 13.33° C | 47% | 1015.1 hPa | 0 mm | - | - | - |
| 1777819866 | 13.33° C | 47% | 1015 hPa | 0 mm | - | - | - |
* Rain latest hour (hover to see other rain measurements)
** Current wind speed in m/s (hover to see current wind gust speed)